Location: Caracas
(10.5033°N, 66.8422°W)
Time: 16:50:12
(UTC-04:00)

Tiangong 1 - Pass Details

Date: 17 November 2017
Orbit: 285 x 308 km, 42.8° (Epoch: 20 November)

Event Time Altitude Azimuth Distance (km) Brightness Sun altitude
Rises 19:23:14 0° 225° (SW) 1,975 5.7 -20.0°
Reaches altitude 10° 19:25:12 10° 225° (SW) 1,149 4.3 -20.5°
Enters shadow 19:26:40 30° 224° (SW) 559 2.4 -20.8°
